TimeMDT,TemperatureF,Dew PointF,Humidity,Sea Level PressureIn,VisibilityMPH,Wind Direction,Wind SpeedMPH,Gust SpeedMPH,PrecipitationIn,Events,Conditions,WindDirDegrees,DateUTC
12:53 AM,36.0,30.0,79,30.06,10.0,Calm,Calm,-,N/A,,Overcast,0,2013-10-20 06:53:00
1:53 AM,37.0,28.9,73,30.04,10.0,Calm,Calm,-,N/A,,Overcast,0,2013-10-20 07:53:00
2:53 AM,37.9,30.0,73,30.04,10.0,Calm,Calm,-,N/A,,Overcast,0,2013-10-20 08:53:00
3:53 AM,37.9,28.9,70,30.04,10.0,Calm,Calm,-,N/A,,Scattered Clouds,0,2013-10-20 09:53:00
4:53 AM,35.1,28.9,78,30.06,10.0,Calm,Calm,-,N/A,,Clear,0,2013-10-20 10:53:00
5:53 AM,32.0,28.0,85,30.08,10.0,Calm,Calm,-,N/A,,Mostly Cloudy,0,2013-10-20 11:53:00
6:53 AM,32.0,28.0,85,30.10,10.0,Calm,Calm,-,N/A,,Overcast,0,2013-10-20 12:53:00
7:53 AM,30.9,27.0,85,30.12,10.0,Calm,Calm,-,N/A,,Scattered Clouds,0,2013-10-20 13:53:00
8:53 AM,32.0,27.0,82,30.16,10.0,Calm,Calm,-,N/A,,Clear,0,2013-10-20 14:53:00
9:53 AM,39.9,30.9,70,30.14,10.0,Calm,Calm,-,N/A,,Clear,0,2013-10-20 15:53:00
10:53 AM,46.9,28.9,50,30.12,10.0,Calm,Calm,-,N/A,,Clear,0,2013-10-20 16:53:00
11:53 AM,50.0,30.0,46,30.11,10.0,Calm,Calm,-,N/A,,Clear,0,2013-10-20 17:53:00
12:53 PM,53.1,28.0,38,30.09,10.0,Calm,Calm,-,N/A,,Clear,0,2013-10-20 18:53:00
1:53 PM,55.0,25.0,31,30.07,10.0,Calm,Calm,-,N/A,,Clear,0,2013-10-20 19:53:00
2:53 PM,55.9,24.1,29,30.05,10.0,Calm,Calm,-,N/A,,Clear,0,2013-10-20 20:53:00
3:53 PM,55.9,23.0,28,30.04,10.0,Calm,Calm,-,N/A,,Partly Cloudy,0,2013-10-20 21:53:00
4:53 PM,57.0,23.0,27,30.05,10.0,Calm,Calm,-,N/A,,Partly Cloudy,0,2013-10-20 22:53:00
5:53 PM,55.9,23.0,28,30.06,10.0,Calm,Calm,-,N/A,,Scattered Clouds,0,2013-10-20 23:53:00
6:53 PM,50.0,25.0,38,30.09,10.0,Calm,Calm,-,N/A,,Clear,0,2013-10-21 00:53:00
7:53 PM,46.0,26.1,46,30.12,10.0,Calm,Calm,-,N/A,,Clear,0,2013-10-21 01:53:00
8:53 PM,44.1,25.0,47,30.14,10.0,Calm,Calm,-,N/A,,Clear,0,2013-10-21 02:53:00
9:53 PM,42.1,26.1,53,30.14,10.0,Calm,Calm,-,N/A,,Clear,0,2013-10-21 03:53:00
10:53 PM,37.9,25.0,60,30.14,10.0,Calm,Calm,-,N/A,,Clear,0,2013-10-21 04:53:00
11:53 PM,35.1,25.0,67,30.16,10.0,Calm,Calm,-,N/A,,Clear,0,2013-10-21 05:53:00